Tracking 35275 objects as of 8-Sep-2026
HD Live streaming from Space Station
objects crossing your sky now

COSMOS 57 DEB


COSMOS 57 DEB is no longer on orbit


NORAD ID: 1142
Int'l Code: 1965-012AW
Launch date: February 22, 1965
Source: Commonwealth of Independent States (former USSR) (CIS)
Launch site: TYURATAM MISSILE AND SPACE COMPLEX (TTMTR)
Decay date: 1965-03-14

Note: This is SATELLITE DEBRIS
Your satellite tracking list
Your tracking list is empty




NASA's NSSDC Master Catalog

Two Line Element Set (TLE):
1 01142U 65012 AW 65064.20201489  .01050246 +24289-2 +00000-0 0  9994
2 01142 064.8071 260.8697 0208461 058.8318 303.1956 15.95278523001722
Source of the keplerian elements: AFSPC